Time,TemperatureF,DewpointF,PressureIn,WindDirection,WindDirectionDegrees,WindSpeedMPH,WindSpeedGustMPH,Humidity,HourlyPrecipIn,Conditions,Clouds,dailyrainin,SoftwareType,DateUTC
2013-02-14 00:02:00,63.0,57.0,30.00,WSW,251,1.0,2.0,79,-99.99,,,-99.99,,2013-02-14 05:02:00,
2013-02-14 00:11:00,63.0,57.0,30.00,South,190,1.0,2.0,81,-99.99,,,-99.99,,2013-02-14 05:11:00,
2013-02-14 00:22:00,63.0,57.0,30.00,South,190,1.0,2.0,81,-99.99,,,-99.99,,2013-02-14 05:22:00,
2013-02-14 00:32:00,63.0,57.0,30.00,West,267,3.0,5.0,82,-99.99,,,-99.99,,2013-02-14 05:32:00,
2013-02-14 00:42:00,63.0,57.0,30.00,West,277,2.0,3.0,80,-99.99,,,-99.99,,2013-02-14 05:42:00,
2013-02-14 00:52:00,63.0,57.0,30.00,West,265,2.0,3.0,81,-99.99,,,-99.99,,2013-02-14 05:52:00,
2013-02-14 01:02:00,63.0,57.0,30.00,West,265,2.0,3.0,81,-99.99,,,-99.99,,2013-02-14 06:02:00,
2013-02-14 01:11:00,62.0,57.0,29.99,WNW,292,2.0,3.0,81,-99.99,,,-99.99,,2013-02-14 06:11:00,
2013-02-14 01:21:00,62.0,56.0,29.99,West,277,3.0,5.0,81,-99.99,,,-99.99,,2013-02-14 06:21:00,
2013-02-14 01:32:00,62.0,56.0,29.99,West,277,3.0,5.0,81,-99.99,,,-99.99,,2013-02-14 06:32:00,
2013-02-14 01:42:00,62.0,56.0,30.00,WNW,288,4.0,6.0,81,-99.99,,,-99.99,,2013-02-14 06:42:00,
2013-02-14 01:52:00,62.0,56.0,29.99,WNW,302,3.0,5.0,80,-99.99,,,-99.99,,2013-02-14 06:52:00,
2013-02-14 02:01:00,62.0,56.0,29.99,WNW,302,3.0,5.0,80,-99.99,,,-99.99,,2013-02-14 07:01:00,
2013-02-14 02:11:00,62.0,56.0,29.99,WNW,298,3.0,5.0,81,-99.99,,,-99.99,,2013-02-14 07:11:00,
2013-02-14 02:21:00,62.0,56.0,29.99,WNW,298,4.0,6.0,81,-99.99,,,-99.99,,2013-02-14 07:21:00,
2013-02-14 02:32:00,62.0,56.0,29.99,WNW,298,4.0,6.0,81,-99.99,,,-99.99,,2013-02-14 07:32:00,
2013-02-14 02:42:00,62.0,56.0,29.98,WNW,298,3.0,4.0,81,-99.99,,,-99.99,,2013-02-14 07:42:00,
2013-02-14 02:52:00,62.0,56.0,29.98,WNW,298,3.0,4.0,81,-99.99,,,-99.99,,2013-02-14 07:52:00,
2013-02-14 03:01:00,62.0,56.0,29.97,NNW,329,3.0,4.0,83,-99.99,,,-99.99,,2013-02-14 08:01:00,
2013-02-14 03:11:00,61.0,56.0,29.96,ESE,119,2.0,3.0,84,-99.99,,,-99.99,,2013-02-14 08:11:00,
2013-02-14 03:22:00,61.0,56.0,29.96,ESE,119,2.0,3.0,84,-99.99,,,-99.99,,2013-02-14 08:22:00,
2013-02-14 03:32:00,60.0,56.0,29.96,SE,135,1.0,3.0,85,-99.99,,,-99.99,,2013-02-14 08:32:00,
2013-02-14 03:43:00,60.0,56.0,29.96,SE,135,1.0,3.0,85,-99.99,,,-99.99,,2013-02-14 08:43:00,
2013-02-14 03:52:00,60.0,56.0,29.96,SE,135,1.0,3.0,85,-99.99,,,-99.99,,2013-02-14 08:52:00,
2013-02-14 04:02:00,58.0,55.0,29.97,WSW,251,1.0,1.0,88,-99.99,,,-99.99,,2013-02-14 09:02:00,
2013-02-14 04:11:00,58.0,55.0,29.97,SSW,201,1.0,1.0,89,-99.99,,,-99.99,,2013-02-14 09:11:00,
2013-02-14 04:21:00,58.0,55.0,29.97,SSW,201,1.0,1.0,89,-99.99,,,-99.99,,2013-02-14 09:21:00,
2013-02-14 04:32:00,58.0,55.0,29.96,SW,217,1.0,3.0,89,-99.99,,,-99.99,,2013-02-14 09:32:00,
2013-02-14 04:42:00,58.0,55.0,29.96,SE,143,3.0,4.0,90,-99.99,,,-99.99,,2013-02-14 09:42:00,
2013-02-14 04:52:00,58.0,55.0,29.96,SE,143,3.0,4.0,90,-99.99,,,-99.99,,2013-02-14 09:52:00,
2013-02-14 05:02:00,58.0,56.0,29.96,SSE,161,2.0,4.0,90,-99.99,,,-99.99,,2013-02-14 10:02:00,
2013-02-14 05:11:00,59.0,56.0,29.96,SE,135,3.0,6.0,90,-99.99,,,-99.99,,2013-02-14 10:11:00,
2013-02-14 05:21:00,59.0,56.0,29.96,SE,135,3.0,6.0,90,-99.99,,,-99.99,,2013-02-14 10:21:00,
2013-02-14 05:32:00,59.0,56.0,29.96,SE,143,3.0,4.0,90,-99.99,,,-99.99,,2013-02-14 10:32:00,
2013-02-14 05:42:00,60.0,57.0,29.96,SE,142,3.0,4.0,90,-99.99,,,-99.99,,2013-02-14 10:42:00,
2013-02-14 05:52:00,60.0,57.0,29.96,SE,140,1.0,3.0,90,-99.99,,,-99.99,,2013-02-14 10:52:00,
2013-02-14 06:02:00,60.0,57.0,29.96,SE,140,1.0,3.0,90,-99.99,,,-99.99,,2013-02-14 11:02:00,
2013-02-14 06:11:00,60.0,58.0,29.96,SE,134,1.0,2.0,90,-99.99,,,-99.99,,2013-02-14 11:11:00,
2013-02-14 06:22:00,60.0,58.0,29.96,SE,134,1.0,2.0,90,-99.99,,,-99.99,,2013-02-14 11:22:00,
2013-02-14 06:32:00,60.0,58.0,29.96,SE,134,1.0,2.0,90,-99.99,,,-99.99,,2013-02-14 11:32:00,
2013-02-14 06:42:00,61.0,58.0,29.96,ESE,122,2.0,3.0,90,-99.99,,,-99.99,,2013-02-14 11:42:00,
2013-02-14 06:52:00,61.0,58.0,29.97,ESE,114,2.0,3.0,90,-99.99,,,-99.99,,2013-02-14 11:52:00,
2013-02-14 07:02:00,61.0,58.0,29.97,ESE,114,2.0,3.0,90,-99.99,,,-99.99,,2013-02-14 12:02:00,
2013-02-14 07:12:00,61.0,58.0,29.96,ESE,119,2.0,3.0,90,-99.99,,,-99.99,,2013-02-14 12:12:00,
2013-02-14 07:22:00,61.0,58.0,29.96,ESE,119,2.0,3.0,90,-99.99,,,-99.99,,2013-02-14 12:22:00,
2013-02-14 07:32:00,61.0,58.0,29.97,SE,132,1.0,3.0,90,-99.99,,,-99.99,,2013-02-14 12:32:00,
2013-02-14 07:42:00,61.0,58.0,29.97,SSE,158,1.0,2.0,90,-99.99,,,-99.99,,2013-02-14 12:42:00,
2013-02-14 07:53:00,61.0,58.0,29.98,SW,222,2.0,5.0,90,-99.99,,,-99.99,,2013-02-14 12:53:00,
2013-02-14 08:02:00,61.0,58.0,29.98,SW,222,2.0,5.0,90,-99.99,,,-99.99,,2013-02-14 13:02:00,
2013-02-14 08:11:00,61.0,58.0,29.99,NW,318,4.0,5.0,90,-99.99,,,-99.99,,2013-02-14 13:11:00,
2013-02-14 08:21:00,61.0,58.0,29.99,NW,318,4.0,5.0,90,-99.99,,,-99.99,,2013-02-14 13:21:00,
2013-02-14 08:32:00,61.0,58.0,29.99,NW,318,4.0,5.0,90,-99.99,,,-99.99,,2013-02-14 13:32:00,
2013-02-14 08:42:00,62.0,59.0,30.01,NW,317,3.0,4.0,88,-99.99,,,-99.99,,2013-02-14 13:42:00,
2013-02-14 08:52:00,63.0,59.0,30.01,WNW,302,2.0,4.0,86,-99.99,,,-99.99,,2013-02-14 13:52:00,
2013-02-14 09:01:00,63.0,59.0,30.01,WNW,302,2.0,4.0,86,-99.99,,,-99.99,,2013-02-14 14:01:00,
2013-02-14 09:11:00,65.0,59.0,30.02,NNW,327,4.0,5.0,81,-99.99,,,-99.99,,2013-02-14 14:11:00,
2013-02-14 09:21:00,65.0,59.0,30.02,NNW,327,4.0,5.0,81,-99.99,,,-99.99,,2013-02-14 14:21:00,
2013-02-14 09:32:00,65.0,59.0,30.01,West,263,3.0,5.0,79,-99.99,,,-99.99,,2013-02-14 14:32:00,
2013-02-14 09:42:00,65.0,59.0,30.01,West,263,3.0,5.0,79,-99.99,,,-99.99,,2013-02-14 14:42:00,
2013-02-14 09:52:00,67.0,59.0,30.03,NW,315,2.0,4.0,73,-99.99,,,-99.99,,2013-02-14 14:52:00,
2013-02-14 10:02:00,67.0,59.0,30.03,NW,315,2.0,4.0,73,-99.99,,,-99.99,,2013-02-14 15:02:00,
2013-02-14 10:11:00,68.0,59.0,30.03,SW,222,3.0,5.0,72,-99.99,,,-99.99,,2013-02-14 15:11:00,
2013-02-14 10:21:00,68.0,59.0,30.03,SW,222,3.0,5.0,72,-99.99,,,-99.99,,2013-02-14 15:21:00,
2013-02-14 10:32:00,69.0,59.0,30.03,ENE,78,3.0,5.0,69,-99.99,,,-99.99,,2013-02-14 15:32:00,
2013-02-14 10:42:00,69.0,59.0,30.03,ENE,78,3.0,5.0,69,-99.99,,,-99.99,,2013-02-14 15:42:00,
2013-02-14 10:52:00,69.0,58.0,30.03,ENE,65,2.0,3.0,68,-99.99,,,-99.99,,2013-02-14 15:52:00,
2013-02-14 11:02:00,69.0,58.0,30.04,SSW,192,1.0,3.0,68,-99.99,,,-99.99,,2013-02-14 16:02:00,
2013-02-14 11:11:00,68.0,59.0,30.04,West,278,5.0,8.0,71,-99.99,,,-99.99,,2013-02-14 16:11:00,
2013-02-14 11:22:00,68.0,59.0,30.04,West,278,5.0,8.0,71,-99.99,,,-99.99,,2013-02-14 16:22:00,
2013-02-14 11:32:00,68.0,61.0,30.03,NW,324,8.0,12.0,77,-99.99,,,-99.99,,2013-02-14 16:32:00,
2013-02-14 11:42:00,67.0,60.0,30.03,NW,312,11.0,19.0,77,-99.99,,,-99.99,,2013-02-14 16:42:00,
2013-02-14 11:52:00,64.0,59.0,30.04,NNW,333,11.0,16.0,83,-99.99,,,-99.99,,2013-02-14 16:52:00,
2013-02-14 12:01:00,64.0,59.0,30.04,NNW,333,11.0,16.0,83,-99.99,,,-99.99,,2013-02-14 17:01:00,
2013-02-14 12:11:00,63.0,59.0,30.04,NNW,330,11.0,15.0,87,-99.99,,,-99.99,,2013-02-14 17:11:00,
2013-02-14 12:21:00,63.0,59.0,30.04,NNW,330,11.0,15.0,87,-99.99,,,-99.99,,2013-02-14 17:21:00,
2013-02-14 12:32:00,63.0,59.0,30.04,NNW,330,11.0,15.0,87,-99.99,,,-99.99,,2013-02-14 17:32:00,
2013-02-14 12:42:00,62.0,60.0,30.04,NNW,333,11.0,15.0,90,-99.99,,,-99.99,,2013-02-14 17:42:00,
2013-02-14 12:52:00,63.0,60.0,30.04,NNW,334,10.0,15.0,91,-99.99,,,-99.99,,2013-02-14 17:52:00,
2013-02-14 13:02:00,63.0,60.0,30.03,NW,325,12.0,16.0,91,-99.99,,,-99.99,,2013-02-14 18:02:00,
2013-02-14 13:11:00,63.0,60.0,30.03,NW,325,12.0,16.0,91,-99.99,,,-99.99,,2013-02-14 18:11:00,
2013-02-14 13:23:00,63.0,60.0,30.02,NW,322,14.0,42.0,91,-99.99,,,-99.99,,2013-02-14 18:23:00,
2013-02-14 13:32:00,62.0,59.0,30.03,NNW,330,12.0,19.0,90,-99.99,,,-99.99,,2013-02-14 18:32:00,
2013-02-14 13:42:00,62.0,59.0,30.03,NNW,330,12.0,19.0,90,-99.99,,,-99.99,,2013-02-14 18:42:00,
2013-02-14 13:52:00,62.0,59.0,30.01,NNW,336,12.0,17.0,90,-99.99,,,-99.99,,2013-02-14 18:52:00,
2013-02-14 14:02:00,62.0,59.0,30.01,NNW,336,12.0,17.0,90,-99.99,,,-99.99,,2013-02-14 19:02:00,
2013-02-14 14:11:00,61.0,58.0,30.00,NNW,333,11.0,14.0,90,-99.99,,,-99.99,,2013-02-14 19:11:00,
2013-02-14 14:22:00,61.0,58.0,30.00,NNW,333,11.0,14.0,90,-99.99,,,-99.99,,2013-02-14 19:22:00,
2013-02-14 14:32:00,61.0,58.0,30.00,NNW,333,10.0,15.0,90,-99.99,,,-99.99,,2013-02-14 19:32:00,
2013-02-14 14:42:00,61.0,58.0,30.00,NNW,333,10.0,15.0,90,-99.99,,,-99.99,,2013-02-14 19:42:00,
2013-02-14 14:52:00,61.0,58.0,29.99,NW,321,7.0,13.0,91,-99.99,,,-99.99,,2013-02-14 19:52:00,
2013-02-14 15:01:00,61.0,59.0,29.98,WSW,247,6.0,9.0,91,-99.99,,,-99.99,,2013-02-14 20:01:00,
2013-02-14 15:11:00,61.0,59.0,29.98,WSW,247,6.0,9.0,91,-99.99,,,-99.99,,2013-02-14 20:11:00,
2013-02-14 15:21:00,61.0,59.0,29.98,NW,306,6.0,9.0,91,-99.99,,,-99.99,,2013-02-14 20:21:00,
2013-02-14 15:32:00,61.0,59.0,29.98,NW,306,6.0,9.0,91,-99.99,,,-99.99,,2013-02-14 20:32:00,
2013-02-14 15:42:00,61.0,59.0,29.97,South,186,4.0,7.0,91,-99.99,,,-99.99,,2013-02-14 20:42:00,
2013-02-14 15:52:00,61.0,59.0,29.97,South,186,4.0,7.0,91,-99.99,,,-99.99,,2013-02-14 20:52:00,
2013-02-14 16:02:00,61.0,59.0,29.97,SSE,164,5.0,9.0,91,-99.99,,,-99.99,,2013-02-14 21:02:00,
2013-02-14 16:11:00,61.0,59.0,29.97,SSE,164,5.0,9.0,91,-99.99,,,-99.99,,2013-02-14 21:11:00,
2013-02-14 16:21:00,61.0,59.0,29.99,NW,304,4.0,6.0,91,-99.99,,,-99.99,,2013-02-14 21:21:00,
2013-02-14 16:32:00,61.0,59.0,29.98,NNW,328,4.0,7.0,91,-99.99,,,-99.99,,2013-02-14 21:32:00,
2013-02-14 16:42:00,61.0,59.0,29.99,NW,311,4.0,5.0,91,-99.99,,,-99.99,,2013-02-14 21:42:00,
2013-02-14 16:51:00,61.0,59.0,30.00,West,264,3.0,5.0,91,-99.99,,,-99.99,,2013-02-14 21:51:00,
2013-02-14 17:02:00,61.0,59.0,30.00,West,264,3.0,5.0,91,-99.99,,,-99.99,,2013-02-14 22:02:00,
2013-02-14 17:11:00,61.0,59.0,29.99,NW,306,3.0,5.0,92,-99.99,,,-99.99,,2013-02-14 22:11:00,
2013-02-14 17:21:00,61.0,59.0,29.99,NW,306,3.0,5.0,92,-99.99,,,-99.99,,2013-02-14 22:21:00,
2013-02-14 17:32:00,61.0,59.0,29.99,NW,306,3.0,5.0,92,-99.99,,,-99.99,,2013-02-14 22:32:00,
2013-02-14 17:42:00,61.0,58.0,30.01,WNW,287,4.0,8.0,92,-99.99,,,-99.99,,2013-02-14 22:42:00,
2013-02-14 17:52:00,61.0,59.0,30.00,NW,314,5.0,8.0,92,-99.99,,,-99.99,,2013-02-14 22:52:00,
2013-02-14 18:01:00,61.0,59.0,30.00,NW,314,5.0,8.0,92,-99.99,,,-99.99,,2013-02-14 23:01:00,
2013-02-14 18:11:00,61.0,59.0,30.01,WNW,295,4.0,7.0,93,-99.99,,,-99.99,,2013-02-14 23:11:00,
2013-02-14 18:21:00,61.0,59.0,30.01,WNW,295,4.0,7.0,93,-99.99,,,-99.99,,2013-02-14 23:21:00,
2013-02-14 18:32:00,61.0,59.0,30.01,ENE,59,3.0,6.0,93,-99.99,,,-99.99,,2013-02-14 23:32:00,
2013-02-14 18:42:00,61.0,59.0,30.00,NNE,17,6.0,8.0,93,-99.99,,,-99.99,,2013-02-14 23:42:00,
2013-02-14 18:52:00,61.0,59.0,30.00,NNE,17,6.0,8.0,93,-99.99,,,-99.99,,2013-02-14 23:52:00,
2013-02-14 19:01:00,60.0,58.0,30.00,NNE,22,6.0,8.0,93,-99.99,,,-99.99,,2013-02-15 00:01:00,
2013-02-14 19:11:00,60.0,58.0,30.00,NNE,22,6.0,8.0,93,-99.99,,,-99.99,,2013-02-15 00:11:00,
2013-02-14 19:22:00,60.0,58.0,30.01,West,280,5.0,7.0,93,-99.99,,,-99.99,,2013-02-15 00:22:00,
2013-02-14 19:32:00,60.0,58.0,30.03,WSW,249,5.0,7.0,93,-99.99,,,-99.99,,2013-02-15 00:32:00,
2013-02-14 19:42:00,60.0,58.0,30.05,NW,310,5.0,7.0,93,-99.99,,,-99.99,,2013-02-15 00:42:00,
2013-02-14 19:52:00,60.0,58.0,30.05,NW,310,5.0,7.0,93,-99.99,,,-99.99,,2013-02-15 00:52:00,
2013-02-14 20:02:00,60.0,58.0,30.04,South,191,2.0,4.0,93,-99.99,,,-99.99,,2013-02-15 01:02:00,
2013-02-14 20:11:00,60.0,58.0,30.04,South,191,2.0,4.0,93,-99.99,,,-99.99,,2013-02-15 01:11:00,
2013-02-14 20:21:00,60.0,58.0,30.04,ESE,114,3.0,4.0,93,-99.99,,,-99.99,,2013-02-15 01:21:00,
2013-02-14 20:32:00,59.0,58.0,30.03,East,86,3.0,6.0,93,-99.99,,,-99.99,,2013-02-15 01:32:00,
2013-02-14 20:42:00,60.0,58.0,30.03,ENE,76,2.0,4.0,93,-99.99,,,-99.99,,2013-02-15 01:42:00,
2013-02-14 20:52:00,60.0,58.0,30.03,ENE,76,2.0,4.0,93,-99.99,,,-99.99,,2013-02-15 01:52:00,
2013-02-14 21:01:00,60.0,58.0,30.05,WSW,252,1.0,2.0,93,-99.99,,,-99.99,,2013-02-15 02:01:00,
2013-02-14 21:11:00,60.0,58.0,30.05,WSW,252,1.0,2.0,93,-99.99,,,-99.99,,2013-02-15 02:11:00,
2013-02-14 21:21:00,60.0,58.0,30.06,WNW,291,5.0,6.0,93,-99.99,,,-99.99,,2013-02-15 02:21:00,
2013-02-14 21:32:00,60.0,58.0,30.05,SW,217,3.0,4.0,93,-99.99,,,-99.99,,2013-02-15 02:32:00,
2013-02-14 21:42:00,59.0,58.0,30.04,ENE,58,3.0,7.0,93,-99.99,,,-99.99,,2013-02-15 02:42:00,
2013-02-14 21:52:00,59.0,58.0,30.05,SW,221,1.0,2.0,93,-99.99,,,-99.99,,2013-02-15 02:52:00,
2013-02-14 22:02:00,59.0,58.0,30.05,SW,221,1.0,2.0,93,-99.99,,,-99.99,,2013-02-15 03:02:00,
2013-02-14 22:11:00,59.0,58.0,30.05,SSE,164,2.0,3.0,93,-99.99,,,-99.99,,2013-02-15 03:11:00,
2013-02-14 22:22:00,59.0,58.0,30.05,SSE,164,2.0,3.0,93,-99.99,,,-99.99,,2013-02-15 03:22:00,
2013-02-14 22:32:00,59.0,58.0,30.05,SSE,164,2.0,3.0,93,-99.99,,,-99.99,,2013-02-15 03:32:00,
2013-02-14 22:42:00,59.0,58.0,30.04,SE,132,4.0,6.0,93,-99.99,,,-99.99,,2013-02-15 03:42:00,
2013-02-14 22:52:00,59.0,58.0,30.02,ESE,122,6.0,10.0,93,-99.99,,,-99.99,,2013-02-15 03:52:00,
2013-02-14 23:02:00,59.0,58.0,30.02,ESE,122,6.0,10.0,93,-99.99,,,-99.99,,2013-02-15 04:02:00,
2013-02-14 23:11:00,59.0,58.0,30.01,SE,125,6.0,10.0,93,-99.99,,,-99.99,,2013-02-15 04:11:00,
2013-02-14 23:21:00,59.0,58.0,30.01,SE,125,6.0,10.0,93,-99.99,,,-99.99,,2013-02-15 04:21:00,
2013-02-14 23:32:00,59.0,57.0,30.02,SE,129,5.0,9.0,93,-99.99,,,-99.99,,2013-02-15 04:32:00,
2013-02-14 23:42:00,59.0,57.0,30.03,SE,130,1.0,3.0,93,-99.99,,,-99.99,,2013-02-15 04:42:00,
2013-02-14 23:52:00,59.0,57.0,30.04,ENE,75,2.0,4.0,93,-99.99,,,-99.99,,2013-02-15 04:52:00,